Startseite
Über Mich
AHP4
Galerie
Sehschlangen
Tourenbuch
Bookmarks
Elektronik
Bewertung
Geschichten
[Tagesmessung] [Jahreswerte] [Information]

Messwerte vom 11.03.2022

Die letzten Messwerte von 23:58:46 Uhr:
KategorieMesswert
Temperatur [°C]2
Luftdruck [mBar]1006
Sonneneinstrahlung0
Wind [km/h]18 aus Süd
Niederschlag [l/m²]0
rel.Luftfeucht.42.6%
CO2 [ppm]468

Diagramme
Messwerte vom 11.03.2022
Tagesaggregation
KategorieMinimumMaximumSchnittSumme
Temperatur [°C]-2113.2104
Luftdruck [mBar]100610101007.9271
Sonneneinstrahlung246100.1042
Wind [km/h]27
rF [%]23.67248
Niederschlag [l/m²]0
CO2 [ppm]401756542.2
Einordnung alsFrosttag
Vegetationstag

Messungen an benachbarten Tagen: Zur Jahresaggregation 2022
Tabelle aller Messwerte
UhrzeitTemperatur [°C]Luftdruck [mBar]SonneWind [km/h]RichtungRegen [l/m²]rF [%]CO2 [ppm]
00:01:46 1 1010 0 0 SO 0 64.9 756
00:04:47 1 1010 0 1 NO 0 65 751
00:07:46 1 1010 0 2 O 0 64.9 750
00:10:48 1 1010 0 2 NO 0 65.2 743
00:13:46 1 1010 0 1 0 65.3 740
00:16:45 1 1010 0 1 O 0 65.6 744
00:19:47 1 1010 0 2 SW 0 65.5 735
00:22:46 1 1010 0 1 N 0 65.7 732
00:25:47 1 1010 0 1 O 0 65.8 723
00:28:47 1 1010 0 1 SO 0 66.1 720
00:31:45 1 1010 0 2 O 0 66.1 717
00:34:47 1 1010 0 4 S 0 66 724
00:37:46 1 1010 0 1 SO 0 65.9 725
00:40:47 1 1010 0 1 NO 0 66.1 720
00:43:47 1 1010 0 2 NW 0 66.3 715
00:46:47 1 1010 0 4 W 0 66.2 723
00:49:47 1 1010 0 6 O 0 66.4 724
00:52:48 1 1010 0 2 NW 0 66.5 726
00:55:47 1 1010 0 2 NO 0 66.6 725
00:58:47 1 1010 0 1 SW 0 66.7 725
01:01:45 1 1010 0 2 N 0 66.7 729
01:04:47 1 1010 0 5 S 0 66.7 725
01:07:46 1 1010 0 1 O 0 66.7 714
01:10:45 1 1010 0 4 S 0 66.6 709
01:13:46 1 1010 0 5 N 0 66.7 706
01:16:45 1 1010 0 4 SO 0 66.7 709
01:19:46 1 1010 0 2 SO 0 66.7 715
01:22:47 0 1010 0 3 S 0 66.8 723
01:25:47 0 1010 0 5 S 0 66.6 726
01:28:46 1 1010 0 4 NW 0 66.6 726
01:31:46 1 1010 0 7 SO 0 66.5 726
01:34:44 1 1010 0 5 0 66.4 724
01:37:46 1 1010 0 4 W 0 66.3 717
01:40:46 0 1010 0 6 O 0 66.2 717
01:43:48 0 1010 0 6 SO 0 66.3 720
01:46:47 0 1009 0 4 N 0 66.4 723
01:49:46 0 1010 0 3 SW 0 66.4 726
01:52:45 0 1010 0 7 S 0 66.4 724
01:55:47 0 1010 0 7 SO 0 66.4 721
01:58:47 0 1010 0 9 NW 0 66.3 715
02:01:49 0 1010 0 8 SO 0 66.2 704
02:04:48 0 1010 0 10 S 0 66 709
02:07:47 0 1010 0 6 W 0 65.8 712
02:10:44 0 1010 0 6 0 65.7 715
02:13:48 0 1010 0 5 N 0 65.4 713
02:16:46 0 1010 0 8 SW 0 65.4 713
02:19:46 0 1010 0 10 O 0 65.4 700
02:22:45 0 1010 0 6 O 0 65.5 697
02:25:48 0 1010 0 5 NW 0 65.7 703
02:28:47 0 1010 0 8 S 0 65.8 706
02:31:49 0 1010 0 3 O 0 65.8 706
02:34:47 0 1010 0 4 SW 0 66 704
02:37:48 0 1010 0 3 SO 0 66.1 700
02:40:46 0 1010 0 0 O 0 66.3 691
02:43:47 0 1010 0 4 SW 0 66.2 700
02:46:47 0 1010 0 3 SO 0 66 709
02:49:48 0 1009 0 2 NO 0 65.8 700
02:52:46 0 1010 0 2 NO 0 65.7 695
02:55:48 0 1010 0 4 S 0 65.9 689
02:58:46 0 1010 0 1 S 0 65.9 687
03:01:48 0 1010 0 3 S 0 66.3 692
03:04:47 0 1010 0 4 SO 0 66.6 691
03:07:50 0 1010 0 4 NW 0 66.5 692
03:10:50 0 1010 0 6 NW 0 66.5 689
03:13:46 0 1010 0 1 S 0 66.5 685
03:16:46 0 1010 0 3 NW 0 66.5 679
03:19:45 0 1010 0 3 N 0 66.7 693
03:22:47 -1 1010 0 5 S 0 67 705
03:25:46 -1 1010 0 1 O 0 67.1 702
03:28:45 -1 1009 0 7 O 0 67 695
03:31:48 -1 1010 0 2 SO 0 67.1 686
03:34:50 -1 1010 0 2 SO 0 67.2 685
03:37:47 -1 1010 0 6 NO 0 67.3 685
03:40:48 -1 1010 0 2 S 0 67.5 679
03:43:47 -1 1010 0 2 SO 0 67.5 682
03:46:50 -1 1009 0 1 SO 0 67.9 682
03:49:46 -1 1010 0 4 O 0 68 679
03:52:45 -1 1010 0 3 O 0 68.3 679
03:55:48 -1 1010 0 2 NO 0 68.3 685
03:58:46 -1 1010 0 6 O 0 68.4 682
04:01:47 -1 1010 0 1 NW 0 68.5 688
04:04:46 -1 1010 0 3 NO 0 68.6 679
04:07:46 -1 1010 0 6 O 0 68.9 674
04:10:47 -1 1010 0 3 NO 0 69.1 668
04:13:49 -1 1010 0 6 NO 0 69.1 669
04:16:48 -1 1010 0 1 NO 0 69.2 670
04:19:44 -1 1009 0 1 0 69.1 674
04:22:47 -1 1010 0 2 SO 0 69.1 671
04:25:46 -1 1010 0 1 NW 0 69.2 667
04:28:48 -1 1010 0 3 N 0 69.6 656
04:31:47 -1 1010 0 2 O 0 69.7 636
04:34:47 -1 1010 0 2 W 0 69.7 650
04:37:49 -1 1010 0 2 SW 0 69.7 651
04:40:45 -1 1010 0 2 NO 0 69.8 650
04:43:44 -1 1010 0 2 O 0 70 649
04:46:46 -1 1010 0 1 SW 0 70 642
04:49:49 -2 1009 0 2 N 0 70.1 650
04:52:47 -2 1010 0 3 NW 0 70.3 650
04:55:46 -2 1010 0 3 SW 0 70.5 653
04:58:46 -2 1010 0 0 NO 0 70.6 651
05:01:45 -2 1010 0 0 O 0 70.7 656
05:04:49 -2 1010 0 0 W 0 70.8 655
05:07:44 -2 1010 0 1 O 0 70.9 641
05:10:47 -2 1010 0 4 O 0 70.8 636
05:13:46 -2 1010 0 1 N 0 71.1 636
05:16:47 -2 1010 0 5 N 0 71.4 638
05:19:47 -2 1009 0 1 O 0 71.5 638
05:22:45 -2 1009 0 3 N 0 71.8 629
05:25:48 -2 1010 0 0 SO 0 71.8 635
05:28:47 -2 1010 0 1 N 0 71.6 635
05:31:47 -2 1009 0 0 W 0 71.6 636
05:34:46 -2 1010 0 2 NO 0 71.8 635
05:37:47 -2 1010 0 5 SO 0 71.8 635
05:40:45 -2 1010 0 4 O 0 72 632
05:43:46 -2 1009 0 2 O 0 72 632
05:46:47 -2 1009 0 2 O 0 71.8 623
05:49:47 -2 1009 0 3 O 0 71.7 624
05:52:45 -2 1009 0 1 O 0 71.4 626
05:55:47 -2 1010 0 3 SW 0 71.6 626
05:58:48 -2 1009 0 2 SO 0 71.7 634
06:01:47 -2 1010 0 7 NO 0 71.7 629
06:04:48 -2 1009 0 2 SO 0 71.7 632
06:07:45 -2 1009 0 0 S 0 71.6 633
06:10:49 -2 1010 0 3 SO 0 71.6 626
06:13:47 -2 1010 0 4 SO 0 71.6 627
06:16:45 -2 1009 3 1 O 0 71.5 630
06:19:46 -2 1009 5 0 SO 0 71.5 630
06:22:47 -2 1010 9 6 SO 0 71.5 633
06:25:48 -2 1009 15 3 W 0 71.4 630
06:28:45 -2 1010 23 1 O 0 71.3 626
06:31:46 -2 1009 33 7 SO 0 71.4 629
06:34:46 -2 1009 45 3 O 0 71.6 638
06:37:47 -2 1009 58 4 NO 0 71.5 645
06:40:46 -2 1009 72 1 NO 0 71.2 641
06:43:50 -2 1009 85 2 SW 0 71.2 642
06:46:46 -2 1009 98 1 NO 0 71.1 633
06:49:48 -2 1010 109 1 SO 0 71 632
06:52:47 -2 1009 119 2 S 0 70.9 623
06:55:50 -2 1010 128 3 NW 0 70.8 629
06:58:49 -2 1009 136 2 NO 0 70.9 638
07:01:48 -2 1009 142 2 N 0 70.7 638
07:04:48 -2 1009 147 6 O 0 70.2 638
07:07:48 -2 1009 152 7 O 0 70 627
07:10:48 -2 1010 156 5 SW 0 69.7 627
07:13:48 -2 1010 160 6 NO 0 69.3 633
07:16:48 -2 1010 163 6 SO 0 68.9 641
07:19:49 -2 1010 166 2 NW 0 68.5 624
07:22:47 -2 1010 167 4 O 0 68.4 624
07:25:47 -2 1010 169 4 S 0 68 653
07:28:47 -2 1009 171 6 SO 0 67.9 665
07:31:48 -2 1010 173 2 O 0 67.7 652
07:34:47 -2 1010 174 5 NO 0 67.7 638
07:37:48 -2 1009 175 3 SO 0 67.2 629
07:40:47 -2 1009 176 2 W 0 67.1 633
07:43:49 -2 1010 178 3 NW 0 67 630
07:46:48 -2 1009 179 6 O 0 66.7 621
07:49:48 -2 1009 179 3 NO 0 66.4 623
07:52:48 -2 1010 180 5 SW 0 66.2 615
07:55:48 -2 1010 181 5 N 0 65.9 616
07:58:48 -1 1010 181 6 SO 0 65.6 612
08:01:47 -1 1010 182 4 SW 0 65.1 605
08:04:50 -1 1010 182 7 SO 0 64.8 600
08:07:51 -1 1010 183 2 SO 0 64.3 597
08:10:49 -1 1010 184 13 S 0 64 600
08:13:49 -1 1010 184 7 SW 0 63.4 594
08:16:49 -1 1010 184 7 SO 0 63.4 604
08:19:47 -1 1010 185 6 O 0 63.4 601
08:22:49 -1 1010 185 4 NO 0 63.1 598
08:25:51 -1 1010 186 1 NO 0 62.5 594
08:28:48 -1 1010 186 13 O 0 62.1 592
08:31:49 -1 1010 186 3 SW 0 61.6 583
08:34:47 -1 1010 186 6 N 0 61.3 571
08:37:48 -1 1010 187 5 S 0 61.5 559
08:40:49 -1 1009 187 4 SO 0 61.2 556
08:43:48 -1 1010 187 9 SO 0 60.7 556
08:46:49 0 1010 187 6 N 0 60.2 558
08:49:47 0 1010 188 5 0 59.1 555
08:52:49 0 1009 188 3 SO 0 59 551
08:55:48 0 1009 188 15 SO 0 58.6 556
08:58:47 0 1010 188 18 NO 0 57.7 561
09:01:47 0 1010 189 3 N 0 57.2 559
09:04:46 0 1010 189 5 N 0 57.2 565
09:07:46 0 1009 189 6 O 0 56.6 565
09:10:48 0 1010 189 5 W 0 56.2 562
09:13:48 0 1010 190 3 SO 0 56 563
09:16:49 0 1009 190 10 O 0 55.1 564
09:19:46 1 1010 190 3 O 0 54.8 557
09:22:46 1 1010 190 6 N 0 54.8 550
09:25:47 1 1010 190 12 O 0 54.7 545
09:28:49 1 1010 190 8 SO 0 54.3 538
09:31:49 1 1009 191 10 SO 0 53.7 532
09:34:46 1 1010 191 4 S 0 53.4 530
09:37:48 1 1010 191 7 SO 0 53.1 525
09:40:49 1 1010 191 13 NO 0 52.4 521
09:43:47 1 1009 192 8 N 0 52.2 521
09:46:47 1 1009 193 15 S 0 51.5 518
09:49:47 1 1009 193 12 O 0 51.3 521
09:52:47 2 1009 194 5 O 0 50.8 521
09:55:48 2 1009 195 9 N 0 51.2 518
09:58:48 2 1009 196 5 SO 0 51.4 521
10:01:51 2 1009 197 4 SO 0 51.1 527
10:04:47 2 1010 198 1 SW 0 51.1 535
10:07:47 2 1010 199 3 SO 0 49.9 536
10:10:48 2 1009 200 2 O 0 49.4 527
10:13:50 2 1009 201 11 SO 0 48.8 524
10:16:48 2 1009 201 8 SO 0 48.7 521
10:19:48 2 1009 201 8 SW 0 48.2 515
10:22:46 2 1009 201 7 O 0 47.9 510
10:25:48 2 1009 201 6 NW 0 47.3 503
10:28:47 2 1009 202 8 NO 0 47.4 498
10:31:50 3 1009 202 13 SO 0 46.5 495
10:34:48 3 1009 202 10 NO 0 46.3 477
10:37:46 3 1009 202 4 O 0 46.4 477
10:40:50 3 1009 202 4 NO 0 46.3 497
10:43:48 3 1010 202 6 NW 0 45.7 519
10:46:46 3 1009 202 3 S 0 45.9 529
10:49:49 3 1009 202 10 NO 0 44.8 536
10:52:46 3 1009 202 8 S 0 45 533
10:55:46 3 1009 203 9 S 0 44.8 541
10:58:49 3 1009 203 12 S 0 44.4 548
11:01:46 4 1009 203 8 W 0 44.4 545
11:04:50 4 1009 203 10 NW 0 43.6 542
11:07:46 4 1009 203 12 N 0 43.1 541
11:10:48 4 1009 203 6 SO 0 42.9 539
11:13:47 4 1009 203 4 NO 0 42.5 550
11:16:49 4 1008 203 13 S 0 43 553
11:19:48 4 1009 204 9 S 0 42.7 550
11:22:46 4 1009 204 8 NO 0 42.5 548
11:25:48 4 1009 204 12 W 0 42 544
11:28:45 4 1009 204 8 O 0 42 445
11:31:48 4 1009 205 10 SO 0 41.4 448
11:34:48 4 1008 205 12 SO 0 41 456
11:37:47 5 1009 205 10 N 0 41.8 457
11:40:45 5 1009 205 12 O 0 40.9 463
11:43:48 6 1009 206 13 SW 0 39.5 454
11:46:51 6 1009 206 3 SW 0 38.6 456
11:49:35 4 1008 207 9 S 0 40 457
11:52:45 6 1008 207 9 O 0 36.1 460
11:55:49 7 1009 207 3 NW 0 36.7 459
11:58:49 7 1008 208 2 SO 0 36.8 459
12:01:46 7 1009 208 5 S 0 35.7 460
12:04:48 7 1009 209 13 SO 0 35.2 457
12:07:48 7 1008 209 10 NO 0 34.5 462
12:10:49 8 1008 209 15 S 0 34 468
12:13:47 8 1009 210 6 SO 0 34.1 471
12:16:46 8 1008 210 6 S 0 34.3 471
12:19:46 8 1009 211 14 S 0 33.4 473
12:22:46 8 1009 211 11 NW 0 33 473
12:25:45 8 1008 212 9 O 0 32.5 471
12:28:50 9 1008 212 13 N 0 30.8 468
12:31:49 9 1008 212 8 S 0 30.8 475
12:34:48 10 1008 213 10 SO 0 31.2 474
12:37:48 10 1008 213 11 NW 0 29.8 475
12:40:49 10 1007 214 4 O 0 28.5 472
12:43:47 9 1008 214 10 SO 0 27.9 477
12:46:46 9 1008 216 6 SO 0 27.7 471
12:49:52 9 1008 218 12 NO 0 27.7 472
12:52:44 9 1007 221 11 O 0 27.9 471
12:55:49 10 1008 223 6 NO 0 28.2 469
12:58:48 10 1007 225 5 NW 0 27.5 475
13:01:46 10 1007 225 7 O 0 27.4 480
13:04:47 10 1006 226 24 N 0 27.1 483
13:07:49 10 1007 227 12 SO 0 27.8 483
13:10:47 10 1007 227 13 O 0 27.4 469
13:13:48 10 1007 227 8 NO 0 27.7 454
13:16:47 10 1007 228 5 S 0 28.1 462
13:19:47 10 1006 228 13 W 0 27.8 474
13:22:48 11 1007 228 5 O 0 26.9 484
13:25:52 10 1007 228 8 S 0 26.6 483
13:28:49 10 1007 228 9 NO 0 26.8 483
13:31:50 10 1007 228 8 W 0 26.9 489
13:34:48 10 1006 229 5 NW 0 27.8 500
13:37:46 10 1006 229 9 O 0 27.3 501
13:40:47 10 1006 230 10 O 0 27.1 506
13:43:47 11 1007 231 5 N 0 26.4 512
13:46:47 11 1006 234 23 S 0 26.5 519
13:49:49 10 1006 235 27 SO 0 25.9 512
13:52:51 10 1007 235 18 S 0 25.3 506
13:55:48 10 1006 235 8 NO 0 25.4 515
13:58:50 10 1006 242 10 S 0 27.1 509
14:01:49 10 1006 242 10 N 0 27.4 506
14:04:48 10 1006 243 11 S 0 26.2 504
14:07:47 10 1006 243 10 S 0 26 497
14:10:48 10 1006 244 7 O 0 25.8 492
14:13:49 10 1007 244 8 NW 0 26.3 490
14:16:50 10 1006 244 10 NW 0 25.9 490
14:19:49 10 1006 244 8 N 0 26 500
14:22:49 10 1006 244 10 N 0 26 500
14:25:47 10 1006 245 10 NO 0 26.5 503
14:28:46 10 1006 245 8 O 0 26.4 503
14:31:48 11 1006 245 15 S 0 26.9 504
14:34:49 11 1006 245 7 SW 0 26.2 500
14:37:47 11 1006 245 6 S 0 26.6 497
14:40:49 11 1006 245 6 S 0 26 498
14:43:47 11 1006 245 10 O 0 25 489
14:46:48 10 1006 246 9 SO 0 25.4 492
14:49:48 10 1006 246 13 SO 0 24.9 492
14:52:48 10 1006 246 11 SO 0 24.9 495
14:55:45 10 1006 246 7 W 0 25.3 494
14:58:48 10 1006 246 26 S 0 24.9 489
15:01:48 10 1006 246 8 W 0 25.2 492
15:04:49 10 1006 246 10 NW 0 25.6 495
15:07:50 10 1006 246 9 SO 0 25.9 492
15:10:49 10 1006 246 11 SO 0 25 492
15:13:49 11 1006 246 14 SW 0 24.8 492
15:16:46 11 1006 246 12 N 0 25.6 501
15:19:52 11 1006 246 4 NO 0 23.8 502
15:22:48 10 1006 246 14 W 0 23.7 504
15:25:49 10 1006 246 13 SO 0 23.6 495
15:28:50 10 1006 246 10 SO 0 23.6 495
15:31:51 10 1006 246 10 NO 0 24 486
15:34:48 10 1006 245 11 NO 0 24.4 495
15:37:49 10 1006 245 16 NO 0 25.2 498
15:40:50 10 1006 244 10 SO 0 24.3 495
15:43:50 10 1006 245 14 W 0 24.9 492
15:46:48 10 1006 245 9 NO 0 25.4 498
15:49:49 10 1006 244 8 SO 0 25.8 509
15:52:47 10 1006 239 7 S 0 26 513
15:55:51 10 1006 234 10 SO 0 26.2 516
15:58:48 10 1006 227 14 NW 0 27.2 516
16:01:45 10 1006 235 3 O 0 27.1 518
16:04:49 10 1006 234 9 SO 0 27.6 525
16:07:49 10 1006 227 11 SO 0 27.4 527
16:10:47 9 1006 231 3 N 0 27 530
16:13:47 9 1006 232 6 O 0 27.2 539
16:16:48 9 1006 232 14 SO 0 27.3 536
16:19:46 9 1006 226 4 O 0 27.2 536
16:22:47 9 1006 221 3 O 0 27.1 533
16:25:47 9 1006 224 5 SO 0 27.8 536
16:28:49 9 1006 234 4 S 0 27.6 544
16:31:48 9 1006 235 18 W 0 27 545
16:34:49 9 1006 235 16 SO 0 26.7 536
16:37:50 9 1006 225 18 SO 0 26.8 524
16:40:49 9 1006 233 8 W 0 27.5 518
16:43:49 9 1006 157 15 SO 0 27.9 524
16:46:47 9 1006 219 2 S 0 28.4 404
16:49:48 9 1006 225 6 O 0 28.2 407
16:52:46 9 1006 219 8 N 0 27.9 404
16:55:48 8 1006 225 9 SW 0 27.5 404
16:58:47 8 1006 226 6 O 0 28.1 407
17:01:50 8 1006 218 6 SW 0 28.8 404
17:04:47 8 1006 226 4 NO 0 29.2 404
17:07:47 8 1006 225 7 O 0 29.7 404
17:10:49 8 1006 218 8 NO 0 30.1 407
17:13:46 7 1006 205 6 N 0 30.6 403
17:16:45 7 1006 211 9 N 0 31.1 407
17:19:47 7 1006 214 3 NO 0 30.6 407
17:22:45 7 1006 214 5 0 30.8 404
17:25:47 7 1006 218 2 O 0 31.2 407
17:28:47 7 1006 197 4 SO 0 31.7 404
17:31:49 7 1006 194 4 NW 0 31.4 407
17:34:49 7 1006 192 10 O 0 31.5 404
17:37:51 7 1006 190 12 O 0 31.5 406
17:40:48 7 1006 187 9 NO 0 31.8 407
17:43:47 6 1006 183 10 O 0 31.8 407
17:46:47 6 1006 180 6 W 0 32 407
17:49:47 6 1006 176 3 SO 0 32.5 407
17:52:46 6 1006 171 3 W 0 33 406
17:55:49 6 1006 164 2 NW 0 33.5 407
17:58:47 6 1006 158 1 SO 0 33.7 407
18:01:48 6 1006 151 9 O 0 33.9 404
18:04:47 6 1006 142 6 N 0 34.4 407
18:07:46 6 1006 133 7 S 0 34.5 404
18:10:47 5 1006 120 6 S 0 34.8 407
18:13:46 5 1006 107 7 N 0 35.3 407
18:16:48 5 1006 92 7 NO 0 35.3 401
18:19:46 5 1006 77 7 SO 0 35.3 407
18:22:46 5 1006 61 2 S 0 35.2 407
18:25:47 5 1006 46 4 O 0 35.2 407
18:28:45 5 1006 33 3 O 0 35 410
18:31:45 5 1006 22 4 0 34.7 421
18:34:46 5 1006 14 9 O 0 35.1 422
18:37:49 5 1006 9 15 NW 0 35.4 418
18:40:48 5 1006 6 13 SW 0 35.5 425
18:43:46 5 1006 3 6 NO 0 35.4 434
18:46:47 5 1006 0 13 SO 0 35.4 436
18:49:47 5 1006 0 10 N 0 35.7 445
18:52:46 5 1006 0 6 SO 0 35.9 442
18:55:48 5 1006 0 16 O 0 36 450
18:58:47 5 1006 0 4 O 0 36.1 452
19:01:47 5 1006 0 8 N 0 36 457
19:04:47 5 1006 0 3 SO 0 36.1 459
19:07:46 5 1006 0 6 O 0 36.1 465
19:10:45 5 1006 0 1 S 0 36.3 475
19:13:46 4 1006 0 3 NO 0 36.2 477
19:16:45 4 1006 0 7 S 0 36.8 478
19:19:47 4 1006 0 3 NO 0 37 469
19:22:47 4 1006 0 5 SO 0 36.9 468
19:25:46 4 1006 0 6 SW 0 36.9 469
19:28:47 4 1006 0 4 N 0 36.9 468
19:31:48 4 1006 0 9 SO 0 37.2 466
19:34:47 4 1006 0 5 SO 0 37.2 469
19:37:49 4 1006 0 1 N 0 37.3 469
19:40:45 4 1006 0 5 0 37.5 463
19:43:46 4 1006 0 5 S 0 37.6 460
19:46:46 4 1006 0 6 SO 0 37.6 463
19:49:44 4 1006 0 2 0 37.7 462
19:52:47 4 1006 0 4 NO 0 37.7 454
19:55:46 4 1006 0 4 NO 0 37.8 448
19:58:47 4 1006 0 2 O 0 37.7 445
20:01:48 4 1006 0 6 SO 0 37.5 448
20:04:46 4 1006 0 3 N 0 37.8 436
20:07:47 4 1006 0 6 NO 0 37.7 437
20:10:48 4 1006 0 8 SW 0 37.5 445
20:13:45 4 1006 0 5 S 0 37.5 458
20:16:46 4 1006 0 3 O 0 37.8 462
20:19:48 4 1006 0 3 SW 0 38 463
20:22:47 4 1006 0 5 N 0 38.2 459
20:25:47 4 1006 0 6 SO 0 38.1 462
20:28:46 4 1006 0 3 O 0 38 466
20:31:47 4 1006 0 3 NO 0 38.1 469
20:34:46 4 1006 0 8 S 0 37.9 455
20:37:47 4 1006 0 7 NO 0 38.2 463
20:40:46 4 1006 0 5 SO 0 38.2 465
20:43:47 4 1006 0 3 NW 0 38.4 465
20:46:47 4 1006 0 7 NO 0 38.5 459
20:49:49 3 1006 0 2 O 0 38.6 457
20:52:48 3 1006 0 9 SO 0 38.6 461
20:55:48 3 1006 0 8 O 0 38.8 454
20:58:45 3 1006 0 7 SO 0 38.7 453
21:01:45 3 1006 0 6 O 0 38.6 442
21:04:46 3 1006 0 4 N 0 39 442
21:07:47 3 1006 0 2 NW 0 39.1 448
21:10:46 3 1006 0 6 N 0 39.4 445
21:13:44 3 1006 0 9 O 0 39.4 439
21:16:44 3 1006 0 7 S 0 39.5 436
21:19:46 3 1006 0 5 NO 0 39.5 439
21:22:48 3 1006 0 16 SO 0 39.5 442
21:25:46 3 1006 0 4 N 0 39.5 439
21:28:46 3 1006 0 2 N 0 39.7 434
21:31:52 3 1006 0 12 NW 0 39.9 427
21:34:47 3 1006 0 6 SO 0 39.9 427
21:37:48 3 1006 0 3 SO 0 40.1 425
21:40:47 3 1006 0 6 N 0 40.1 416
21:43:46 3 1006 0 6 S 0 40.3 415
21:46:46 3 1006 0 8 S 0 40.3 416
21:49:55 3 1006 0 2 O 0 40.4 409
21:52:44 3 1006 0 8 O 0 40.3 406
21:55:48 3 1006 0 11 SO 0 40.2 407
21:58:50 3 1006 0 11 SO 0 40.2 404
22:01:46 3 1006 0 2 N 0 40.4 406
22:04:47 3 1006 0 14 SO 0 40.4 406
22:07:48 3 1006 0 6 SO 0 40.6 404
22:10:46 3 1006 0 6 NW 0 40.6 407
22:13:47 3 1006 0 1 N 0 41 404
22:16:46 3 1006 0 4 O 0 41 406
22:19:48 3 1006 0 3 SO 0 41 407
22:22:46 3 1006 0 7 N 0 41.1 407
22:25:45 3 1006 0 5 O 0 41.1 407
22:28:47 3 1006 0 5 SO 0 41 404
22:31:47 3 1006 0 8 O 0 41.2 404
22:34:46 3 1006 0 13 N 0 41.2 407
22:37:47 3 1006 0 17 S 0 41.2 403
22:40:46 3 1006 0 8 SO 0 41.4 404
22:43:46 2 1006 0 7 S 0 41.4 404
22:46:47 2 1006 0 11 SO 0 41.4 403
22:49:46 2 1006 0 8 N 0 41.7 407
22:52:48 2 1006 0 12 SO 0 42.1 410
22:55:46 2 1006 0 4 N 0 42 413
22:58:49 2 1006 0 3 NW 0 42.1 416
23:01:46 2 1006 0 1 SW 0 42.3 416
23:04:46 2 1006 0 7 N 0 42.3 415
23:07:46 2 1006 0 12 N 0 42.4 416
23:10:45 2 1006 0 7 S 0 42.9 413
23:13:46 2 1006 0 5 NO 0 42.9 416
23:16:46 2 1006 0 4 N 0 43.1 416
23:19:47 2 1006 0 5 S 0 43 422
23:22:44 2 1006 0 7 O 0 43 424
23:25:47 2 1006 0 9 S 0 43 433
23:28:46 2 1006 0 7 O 0 43.1 436
23:31:46 2 1006 0 6 N 0 43.2 448
23:34:47 2 1006 0 14 O 0 43.3 463
23:37:48 2 1006 0 14 SO 0 43.3 468
23:40:45 2 1006 0 7 W 0 43.1 469
23:43:48 2 1006 0 2 SO 0 43.1 462
23:46:46 2 1006 0 1 N 0 43 460
23:49:48 2 1006 0 12 SO 0 43 460
23:52:45 2 1006 0 3 0 43 466
23:55:44 2 1006 0 4 S 0 42.8 468
23:58:46 2 1006 0 18 S 0 42.6 468

Letzte Änderung : 04-Jan-2022
Copyright Jens Köhler, Wolfsburg, Obere Dorfstraße 10d